Time,TemperatureF,DewpointF,PressureIn,WindDirection,WindDirectionDegrees,WindSpeedMPH,WindSpeedGustMPH,Humidity,HourlyPrecipIn,Conditions,Clouds,dailyrainin,SoftwareType,DateUTC
2013-09-07 00:01:00,47.4,47.1,30.15,NE,56,0.0,0.0,99,0.00,,,0.00,Wunderground v.1.15,2013-09-07 04:01:00,
2013-09-07 00:02:00,47.3,47.0,30.15,NE,56,0.0,0.0,99,0.00,,,0.00,Wunderground v.1.15,2013-09-07 04:02:00,
2013-09-07 00:03:00,47.3,47.0,30.15,NE,56,0.0,0.0,99,0.00,,,0.00,Wunderground v.1.15,2013-09-07 04:03:00,
2013-09-07 00:09:00,47.2,46.9,30.14,NE,56,0.0,0.0,99,0.00,,,0.00,Wunderground v.1.15,2013-09-07 04:09:00,
2013-09-07 00:15:00,47.1,46.8,30.14,NE,56,0.0,0.0,99,0.00,,,0.00,Wunderground v.1.15,2013-09-07 04:15:00,
2013-09-07 00:19:00,47.0,46.7,30.14,NE,56,0.0,0.0,99,0.00,,,0.00,Wunderground v.1.15,2013-09-07 04:19:00,
2013-09-07 00:24:00,46.9,46.6,30.14,NE,56,0.0,0.0,99,0.00,,,0.00,Wunderground v.1.15,2013-09-07 04:24:00,
2013-09-07 00:25:00,46.9,46.6,30.14,NE,56,0.0,0.0,99,0.00,,,0.00,Wunderground v.1.15,2013-09-07 04:25:00,
2013-09-07 00:30:00,46.8,46.5,30.14,NE,56,0.0,0.0,99,0.00,,,0.00,Wunderground v.1.15,2013-09-07 04:30:00,
2013-09-07 00:32:00,46.8,46.5,30.14,NE,56,0.0,0.0,99,0.00,,,0.00,Wunderground v.1.15,2013-09-07 04:32:00,
2013-09-07 00:37:00,46.9,46.6,30.14,NE,56,0.0,0.0,99,0.00,,,0.00,Wunderground v.1.15,2013-09-07 04:37:00,
2013-09-07 00:43:00,46.7,46.4,30.14,NE,56,0.0,0.0,99,0.00,,,0.00,Wunderground v.1.15,2013-09-07 04:43:00,
2013-09-07 00:49:00,46.5,46.2,30.14,NE,56,0.0,0.0,99,0.00,,,0.00,Wunderground v.1.15,2013-09-07 04:49:00,
2013-09-07 00:55:00,46.3,46.0,30.14,NE,56,0.0,0.0,99,0.00,,,0.00,Wunderground v.1.15,2013-09-07 04:55:00,
2013-09-07 01:00:00,46.1,45.8,30.14,NE,56,0.0,0.0,99,0.00,,,0.00,Wunderground v.1.15,2013-09-07 05:00:00,
2013-09-07 01:06:00,45.9,45.6,30.14,NE,56,0.0,0.0,99,0.00,,,0.00,Wunderground v.1.15,2013-09-07 05:06:00,
2013-09-07 01:11:00,45.8,45.5,30.14,NE,56,0.0,0.0,99,0.00,,,0.00,Wunderground v.1.15,2013-09-07 05:11:00,
2013-09-07 01:17:00,45.7,45.4,30.14,NE,56,0.0,0.0,99,0.00,,,0.00,Wunderground v.1.15,2013-09-07 05:17:00,
2013-09-07 01:23:00,45.6,45.3,30.14,NE,56,0.0,0.0,99,0.00,,,0.00,Wunderground v.1.15,2013-09-07 05:23:00,
2013-09-07 01:29:00,45.6,45.3,30.14,NE,56,0.0,0.0,99,0.00,,,0.00,Wunderground v.1.15,2013-09-07 05:29:00,
2013-09-07 01:34:00,45.6,45.3,30.14,NE,56,0.0,0.0,99,0.00,,,0.00,Wunderground v.1.15,2013-09-07 05:34:00,
2013-09-07 01:40:00,45.5,45.2,30.14,NE,56,0.0,0.0,99,0.00,,,0.00,Wunderground v.1.15,2013-09-07 05:40:00,
2013-09-07 01:46:00,45.4,45.1,30.14,NE,56,0.0,0.0,99,0.00,,,0.00,Wunderground v.1.15,2013-09-07 05:46:00,
2013-09-07 01:51:00,45.2,44.9,30.14,NE,56,0.0,0.0,99,0.00,,,0.00,Wunderground v.1.15,2013-09-07 05:51:00,
2013-09-07 01:57:00,45.1,44.8,30.14,NE,56,0.0,0.0,99,0.00,,,0.00,Wunderground v.1.15,2013-09-07 05:57:00,
2013-09-07 02:02:00,45.0,44.7,30.14,NE,56,0.0,0.0,99,0.00,,,0.00,Wunderground v.1.15,2013-09-07 06:02:00,
2013-09-07 02:08:00,45.1,44.8,30.14,NE,56,0.0,0.0,99,0.00,,,0.00,Wunderground v.1.15,2013-09-07 06:08:00,
2013-09-07 02:14:00,45.2,44.9,30.13,NE,56,0.0,0.0,99,0.00,,,0.00,Wunderground v.1.15,2013-09-07 06:14:00,
2013-09-07 02:20:00,45.2,44.9,30.13,NE,56,0.0,0.0,99,0.00,,,0.00,Wunderground v.1.15,2013-09-07 06:20:00,
2013-09-07 02:26:00,45.1,44.8,30.13,NE,56,0.0,0.0,99,0.00,,,0.00,Wunderground v.1.15,2013-09-07 06:26:00,
2013-09-07 02:32:00,45.2,44.9,30.13,NE,56,0.0,0.0,99,0.00,,,0.00,Wunderground v.1.15,2013-09-07 06:32:00,
2013-09-07 02:37:00,45.3,45.0,30.13,NE,56,0.0,0.0,99,0.00,,,0.00,Wunderground v.1.15,2013-09-07 06:37:00,
2013-09-07 02:43:00,45.3,45.0,30.12,NE,56,0.0,0.0,99,0.00,,,0.00,Wunderground v.1.15,2013-09-07 06:43:00,
2013-09-07 02:49:00,45.2,44.9,30.13,NE,56,0.0,0.0,99,0.00,,,0.00,Wunderground v.1.15,2013-09-07 06:49:00,
2013-09-07 02:55:00,45.0,44.7,30.13,NE,56,0.0,0.0,99,0.00,,,0.00,Wunderground v.1.15,2013-09-07 06:55:00,
2013-09-07 03:00:00,45.0,44.7,30.13,NE,56,0.0,0.0,99,0.00,,,0.00,Wunderground v.1.15,2013-09-07 07:00:00,
2013-09-07 03:06:00,44.8,44.5,30.13,NE,56,0.0,0.0,99,0.00,,,0.00,Wunderground v.1.15,2013-09-07 07:06:00,
2013-09-07 03:11:00,44.9,44.6,30.12,NE,56,0.0,0.0,99,0.00,,,0.00,Wunderground v.1.15,2013-09-07 07:11:00,
2013-09-07 03:17:00,44.9,44.6,30.12,NE,56,0.0,0.0,99,0.00,,,0.00,Wunderground v.1.15,2013-09-07 07:17:00,
2013-09-07 03:23:00,44.8,44.5,30.12,NE,56,0.0,0.0,99,0.00,,,0.00,Wunderground v.1.15,2013-09-07 07:23:00,
2013-09-07 03:29:00,44.7,44.4,30.12,NE,56,0.0,0.0,99,0.00,,,0.00,Wunderground v.1.15,2013-09-07 07:29:00,
2013-09-07 03:35:00,44.7,44.4,30.12,NE,56,0.0,0.0,99,0.00,,,0.00,Wunderground v.1.15,2013-09-07 07:35:00,
2013-09-07 03:40:00,44.7,44.4,30.12,NE,56,0.0,0.0,99,0.00,,,0.00,Wunderground v.1.15,2013-09-07 07:40:00,
2013-09-07 03:46:00,44.5,44.2,30.12,NE,56,0.0,0.0,99,0.00,,,0.00,Wunderground v.1.15,2013-09-07 07:46:00,
2013-09-07 03:51:00,44.4,44.1,30.12,NE,56,0.0,0.0,99,0.00,,,0.00,Wunderground v.1.15,2013-09-07 07:51:00,
2013-09-07 03:56:00,44.2,43.9,30.12,NE,56,0.0,0.0,99,0.00,,,0.00,Wunderground v.1.15,2013-09-07 07:56:00,
2013-09-07 04:02:00,44.0,43.7,30.12,NE,56,0.0,0.0,99,0.00,,,0.00,Wunderground v.1.15,2013-09-07 08:02:00,
2013-09-07 04:08:00,44.0,43.7,30.12,NE,56,0.0,0.0,99,0.00,,,0.00,Wunderground v.1.15,2013-09-07 08:08:00,
2013-09-07 04:13:00,44.0,43.7,30.12,NE,56,0.0,0.0,99,0.00,,,0.00,Wunderground v.1.15,2013-09-07 08:13:00,
2013-09-07 04:19:00,44.0,43.7,30.12,NE,56,0.0,0.0,99,0.00,,,0.00,Wunderground v.1.15,2013-09-07 08:19:00,
2013-09-07 04:25:00,44.1,43.8,30.12,NE,56,0.0,0.0,99,0.00,,,0.00,Wunderground v.1.15,2013-09-07 08:25:00,
2013-09-07 04:31:00,44.0,43.7,30.12,NE,56,0.0,0.0,99,0.00,,,0.00,Wunderground v.1.15,2013-09-07 08:31:00,
2013-09-07 04:37:00,44.0,43.7,30.12,NE,56,0.0,0.0,99,0.00,,,0.00,Wunderground v.1.15,2013-09-07 08:37:00,
2013-09-07 04:43:00,44.0,43.7,30.12,NE,56,0.0,0.0,99,0.00,,,0.00,Wunderground v.1.15,2013-09-07 08:43:00,
2013-09-07 04:49:00,43.8,43.5,30.12,NE,56,0.0,0.0,99,0.00,,,0.00,Wunderground v.1.15,2013-09-07 08:49:00,
2013-09-07 04:55:00,43.6,43.3,30.12,NE,56,0.0,0.0,99,0.00,,,0.00,Wunderground v.1.15,2013-09-07 08:55:00,
2013-09-07 05:01:00,43.6,43.3,30.12,NE,56,0.0,0.0,99,0.00,,,0.00,Wunderground v.1.15,2013-09-07 09:01:00,
2013-09-07 05:06:00,43.4,43.1,30.12,NE,56,0.0,0.0,99,0.00,,,0.00,Wunderground v.1.15,2013-09-07 09:06:00,
2013-09-07 05:11:00,43.3,43.0,30.12,NE,56,0.0,0.0,99,0.00,,,0.00,Wunderground v.1.15,2013-09-07 09:11:00,
2013-09-07 05:17:00,43.2,42.9,30.12,NE,56,0.0,0.0,99,0.00,,,0.00,Wunderground v.1.15,2013-09-07 09:17:00,
2013-09-07 05:23:00,43.1,42.8,30.12,NE,56,0.0,0.0,99,0.00,,,0.00,Wunderground v.1.15,2013-09-07 09:23:00,
2013-09-07 05:28:00,43.1,42.8,30.12,NE,56,0.0,0.0,99,0.00,,,0.00,Wunderground v.1.15,2013-09-07 09:28:00,
2013-09-07 05:34:00,42.9,42.6,30.12,NE,56,0.0,0.0,99,0.00,,,0.00,Wunderground v.1.15,2013-09-07 09:34:00,
2013-09-07 05:39:00,43.0,42.7,30.12,NE,56,0.0,0.0,99,0.00,,,0.00,Wunderground v.1.15,2013-09-07 09:39:00,
2013-09-07 05:45:00,43.0,42.7,30.12,NE,56,0.0,0.0,99,0.00,,,0.00,Wunderground v.1.15,2013-09-07 09:45:00,
2013-09-07 05:51:00,42.9,42.6,30.12,NE,56,0.0,0.0,99,0.00,,,0.00,Wunderground v.1.15,2013-09-07 09:51:00,
2013-09-07 05:57:00,42.8,42.5,30.12,NE,56,0.0,0.0,99,0.00,,,0.00,Wunderground v.1.15,2013-09-07 09:57:00,
2013-09-07 06:02:00,42.7,42.4,30.12,NE,56,0.0,0.0,99,0.00,,,0.00,Wunderground v.1.15,2013-09-07 10:02:00,
2013-09-07 06:08:00,42.5,42.2,30.12,NE,56,0.0,0.0,99,0.00,,,0.00,Wunderground v.1.15,2013-09-07 10:08:00,
2013-09-07 06:13:00,42.4,42.1,30.12,NE,56,0.0,0.0,99,0.00,,,0.00,Wunderground v.1.15,2013-09-07 10:13:00,
2013-09-07 06:19:00,42.3,42.0,30.12,NE,56,0.0,0.0,99,0.00,,,0.00,Wunderground v.1.15,2013-09-07 10:19:00,
2013-09-07 06:25:00,42.2,41.9,30.13,NE,56,0.0,0.0,99,0.00,,,0.00,Wunderground v.1.15,2013-09-07 10:25:00,
2013-09-07 06:31:00,42.4,42.1,30.12,NE,56,0.0,0.0,99,0.00,,,0.00,Wunderground v.1.15,2013-09-07 10:31:00,
2013-09-07 06:37:00,42.3,42.0,30.13,NE,56,0.0,0.0,99,0.00,,,0.00,Wunderground v.1.15,2013-09-07 10:37:00,
2013-09-07 06:43:00,42.4,42.1,30.13,NE,56,0.0,0.0,99,0.00,,,0.00,Wunderground v.1.15,2013-09-07 10:43:00,
2013-09-07 06:49:00,42.3,42.0,30.13,NE,56,0.0,0.0,99,0.00,,,0.00,Wunderground v.1.15,2013-09-07 10:49:00,
2013-09-07 06:54:00,42.3,42.0,30.13,NE,56,0.0,0.0,99,0.00,,,0.01,Wunderground v.1.15,2013-09-07 10:54:00,
2013-09-07 07:00:00,42.3,42.0,30.12,NE,56,0.0,0.0,99,0.00,,,0.01,Wunderground v.1.15,2013-09-07 11:00:00,
2013-09-07 07:06:00,42.3,42.0,30.12,NE,56,0.0,0.0,99,0.00,,,0.01,Wunderground v.1.15,2013-09-07 11:06:00,
2013-09-07 07:12:00,42.3,42.0,30.13,NE,56,0.0,0.0,99,0.00,,,0.01,Wunderground v.1.15,2013-09-07 11:12:00,
2013-09-07 07:18:00,42.3,42.0,30.13,NE,56,0.0,0.0,99,0.00,,,0.01,Wunderground v.1.15,2013-09-07 11:18:00,
2013-09-07 07:24:00,42.3,42.0,30.13,NE,56,0.0,0.0,99,0.00,,,0.01,Wunderground v.1.15,2013-09-07 11:24:00,
2013-09-07 07:29:00,42.4,42.1,30.13,NE,56,0.0,0.0,99,0.00,,,0.01,Wunderground v.1.15,2013-09-07 11:29:00,
2013-09-07 07:35:00,42.5,42.2,30.13,NE,56,0.0,0.0,99,0.00,,,0.01,Wunderground v.1.15,2013-09-07 11:35:00,
2013-09-07 07:40:00,42.5,42.2,30.13,NE,56,0.0,0.0,99,0.00,,,0.01,Wunderground v.1.15,2013-09-07 11:40:00,
2013-09-07 07:45:00,42.7,42.4,30.13,NE,56,0.0,0.0,99,0.00,,,0.01,Wunderground v.1.15,2013-09-07 11:45:00,
2013-09-07 07:51:00,42.9,42.6,30.13,NE,56,0.0,0.0,99,0.00,,,0.01,Wunderground v.1.15,2013-09-07 11:51:00,
2013-09-07 07:57:00,43.4,43.1,30.13,NE,56,0.0,0.0,99,0.00,,,0.01,Wunderground v.1.15,2013-09-07 11:57:00,
2013-09-07 08:03:00,44.0,43.7,30.13,NE,56,0.0,0.0,99,0.00,,,0.01,Wunderground v.1.15,2013-09-07 12:03:00,
2013-09-07 08:09:00,44.9,44.6,30.13,NE,56,0.0,0.0,99,0.00,,,0.01,Wunderground v.1.15,2013-09-07 12:09:00,
2013-09-07 08:15:00,46.2,45.9,30.13,NE,56,0.0,0.0,99,0.00,,,0.01,Wunderground v.1.15,2013-09-07 12:15:00,
2013-09-07 08:20:00,47.5,47.2,30.13,NE,56,0.0,0.0,99,0.00,,,0.01,Wunderground v.1.15,2013-09-07 12:20:00,
2013-09-07 08:26:00,49.0,48.7,30.13,NE,56,0.0,0.0,99,0.00,,,0.01,Wunderground v.1.15,2013-09-07 12:26:00,
2013-09-07 08:32:00,49.6,49.3,30.12,NE,56,0.0,0.0,99,0.00,,,0.01,Wunderground v.1.15,2013-09-07 12:32:00,
2013-09-07 08:38:00,50.6,50.3,30.12,NE,56,0.0,0.0,99,0.00,,,0.01,Wunderground v.1.15,2013-09-07 12:38:00,
2013-09-07 08:43:00,51.1,50.8,30.12,NE,56,0.0,0.0,99,0.00,,,0.01,Wunderground v.1.15,2013-09-07 12:43:00,
2013-09-07 08:49:00,51.8,51.5,30.12,NE,56,0.0,0.0,99,0.00,,,0.01,Wunderground v.1.15,2013-09-07 12:49:00,
2013-09-07 08:55:00,52.2,51.9,30.12,NE,56,0.0,1.0,99,0.00,,,0.01,Wunderground v.1.15,2013-09-07 12:55:00,
2013-09-07 09:00:00,53.2,52.9,30.12,NE,56,0.0,0.0,99,0.00,,,0.01,Wunderground v.1.15,2013-09-07 13:00:00,
2013-09-07 09:06:00,54.2,53.9,30.11,NE,56,0.0,1.0,99,0.00,,,0.01,Wunderground v.1.15,2013-09-07 13:06:00,
2013-09-07 09:11:00,55.8,55.5,30.11,NE,56,0.0,0.0,99,0.00,,,0.01,Wunderground v.1.15,2013-09-07 13:11:00,
2013-09-07 09:17:00,56.4,56.1,30.11,NE,56,0.0,0.0,99,0.00,,,0.01,Wunderground v.1.15,2013-09-07 13:17:00,
2013-09-07 09:23:00,57.8,57.5,30.11,NE,56,0.0,0.0,99,0.00,,,0.01,Wunderground v.1.15,2013-09-07 13:23:00,
2013-09-07 09:29:00,58.8,58.5,30.12,NE,56,0.0,0.0,99,0.00,,,0.01,Wunderground v.1.15,2013-09-07 13:29:00,
2013-09-07 09:35:00,59.4,58.3,30.11,NE,56,0.0,0.0,96,0.00,,,0.01,Wunderground v.1.15,2013-09-07 13:35:00,
2013-09-07 09:40:00,60.2,58.5,30.11,NE,56,0.0,0.0,94,0.00,,,0.01,Wunderground v.1.15,2013-09-07 13:40:00,
2013-09-07 09:46:00,60.8,-99.9,30.11,East,101,0.0,2.0,255,0.00,,,0.01,Wunderground v.1.15,2013-09-07 13:46:00,
2013-09-07 09:52:00,62.1,-99.9,30.12,East,101,0.0,0.0,255,0.00,,,0.01,Wunderground v.1.15,2013-09-07 13:52:00,
2013-09-07 09:58:00,-999.9,-99.9,30.12,East,101,0.0,0.0,255,0.00,,,0.01,Wunderground v.1.15,2013-09-07 13:58:00,
2013-09-07 10:03:00,-999.9,-99.9,30.12,SSE,161,0.0,1.0,255,0.00,,,0.01,Wunderground v.1.15,2013-09-07 14:03:00,
2013-09-07 10:09:00,-999.9,-99.9,30.12,WSW,247,0.0,1.0,255,0.00,,,0.01,Wunderground v.1.15,2013-09-07 14:09:00,
2013-09-07 10:14:00,-999.9,-99.9,30.12,WSW,247,0.0,1.0,255,0.00,,,0.01,Wunderground v.1.15,2013-09-07 14:14:00,
2013-09-07 10:20:00,-999.9,-99.9,30.11,WNW,300,0.0,1.0,255,0.00,,,0.01,Wunderground v.1.15,2013-09-07 14:20:00,
2013-09-07 10:25:00,-999.9,-99.9,30.11,WNW,300,0.0,1.0,255,0.00,,,0.01,Wunderground v.1.15,2013-09-07 14:25:00,
2013-09-07 10:31:00,-999.9,-99.9,30.11,South,169,0.0,2.0,255,0.00,,,0.01,Wunderground v.1.15,2013-09-07 14:31:00,
2013-09-07 10:37:00,-999.9,-99.9,30.11,SSE,165,1.0,2.0,255,0.00,,,0.01,Wunderground v.1.15,2013-09-07 14:37:00,
2013-09-07 10:43:00,-999.9,-99.9,30.11,WSW,239,1.0,2.0,255,0.00,,,0.01,Wunderground v.1.15,2013-09-07 14:43:00,
2013-09-07 10:49:00,-999.9,-99.9,30.11,ENE,76,1.0,4.0,255,0.00,,,0.01,Wunderground v.1.15,2013-09-07 14:49:00,
2013-09-07 10:55:00,-999.9,-99.9,30.10,ESE,115,1.0,3.0,255,0.00,,,0.01,Wunderground v.1.15,2013-09-07 14:55:00,
2013-09-07 11:01:00,-999.9,-99.9,30.10,SSE,163,1.0,5.0,255,0.00,,,0.01,Wunderground v.1.15,2013-09-07 15:01:00,
2013-09-07 11:06:00,-999.9,-99.9,30.10,South,170,1.0,5.0,255,0.00,,,0.01,Wunderground v.1.15,2013-09-07 15:06:00,
2013-09-07 11:12:00,-999.9,-99.9,30.10,ESE,111,1.0,4.0,255,0.00,,,0.01,Wunderground v.1.15,2013-09-07 15:12:00,
2013-09-07 11:18:00,-999.9,-99.9,30.10,SSE,168,1.0,4.0,255,0.00,,,0.01,Wunderground v.1.15,2013-09-07 15:18:00,
2013-09-07 11:24:00,-999.9,-99.9,30.10,South,183,0.0,4.0,255,0.00,,,0.01,Wunderground v.1.15,2013-09-07 15:24:00,
2013-09-07 11:30:00,-999.9,-99.9,30.10,SSE,164,1.0,4.0,255,0.00,,,0.01,Wunderground v.1.15,2013-09-07 15:30:00,
2013-09-07 11:35:00,-999.9,-99.9,30.10,ESE,123,1.0,4.0,255,0.00,,,0.01,Wunderground v.1.15,2013-09-07 15:35:00,
2013-09-07 11:40:00,-999.9,-99.9,30.10,SSE,166,2.0,2.0,255,0.00,,,0.01,Wunderground v.1.15,2013-09-07 15:40:00,
2013-09-07 11:46:00,-999.9,-99.9,30.10,SSE,166,2.0,4.0,255,0.00,,,0.01,Wunderground v.1.15,2013-09-07 15:46:00,
2013-09-07 11:52:00,-999.9,-99.9,30.10,SSE,161,1.0,4.0,255,0.00,,,0.01,Wunderground v.1.15,2013-09-07 15:52:00,
2013-09-07 11:57:00,-999.9,-99.9,30.10,South,182,1.0,5.0,255,0.00,,,0.01,Wunderground v.1.15,2013-09-07 15:57:00,
2013-09-07 12:02:00,-999.9,-99.9,30.10,South,176,1.0,6.0,255,0.00,,,0.01,Wunderground v.1.15,2013-09-07 16:02:00,
2013-09-07 12:08:00,-999.9,-99.9,30.09,ENE,69,1.0,6.0,255,0.00,,,0.01,Wunderground v.1.15,2013-09-07 16:08:00,
2013-09-07 12:13:00,-999.9,-99.9,30.09,WNW,301,1.0,6.0,255,0.00,,,0.01,Wunderground v.1.15,2013-09-07 16:13:00,
2013-09-07 12:19:00,-999.9,-99.9,30.09,SSE,167,2.0,6.0,255,0.00,,,0.01,Wunderground v.1.15,2013-09-07 16:19:00,
2013-09-07 12:25:00,-999.9,-99.9,30.09,SSE,158,1.0,6.0,255,0.00,,,0.01,Wunderground v.1.15,2013-09-07 16:25:00,
2013-09-07 12:31:00,-999.9,-99.9,30.08,ESE,105,1.0,6.0,255,0.00,,,0.01,Wunderground v.1.15,2013-09-07 16:31:00,
2013-09-07 12:36:00,-999.9,-99.9,30.08,South,170,3.0,6.0,255,0.00,,,0.01,Wunderground v.1.15,2013-09-07 16:36:00,
2013-09-07 12:41:00,-999.9,-99.9,30.08,South,173,2.0,6.0,255,0.00,,,0.01,Wunderground v.1.15,2013-09-07 16:41:00,
2013-09-07 12:47:00,-999.9,-99.9,30.08,SSE,166,1.0,6.0,255,0.00,,,0.01,Wunderground v.1.15,2013-09-07 16:47:00,
2013-09-07 12:52:00,-999.9,-99.9,30.08,South,172,1.0,6.0,255,0.00,,,0.01,Wunderground v.1.15,2013-09-07 16:52:00,
2013-09-07 12:58:00,-999.9,-99.9,30.07,South,189,1.0,6.0,255,0.00,,,0.01,Wunderground v.1.15,2013-09-07 16:58:00,
2013-09-07 13:03:00,-999.9,-99.9,30.07,SSW,213,1.0,7.0,255,0.00,,,0.01,Wunderground v.1.15,2013-09-07 17:03:00,
2013-09-07 13:09:00,-999.9,-99.9,30.07,SE,139,1.0,7.0,255,0.00,,,0.01,Wunderground v.1.15,2013-09-07 17:09:00,
2013-09-07 13:14:00,-999.9,-99.9,30.07,South,178,2.0,7.0,255,0.00,,,0.01,Wunderground v.1.15,2013-09-07 17:14:00,
2013-09-07 13:20:00,-999.9,-99.9,30.07,SE,124,2.0,2.0,255,0.00,,,0.01,Wunderground v.1.15,2013-09-07 17:20:00,
2013-09-07 13:25:00,-999.9,-99.9,30.07,West,274,1.0,7.0,255,0.00,,,0.01,Wunderground v.1.15,2013-09-07 17:25:00,
2013-09-07 13:31:00,-999.9,-99.9,30.07,South,180,2.0,7.0,255,0.00,,,0.01,Wunderground v.1.15,2013-09-07 17:31:00,
2013-09-07 13:37:00,-999.9,-99.9,30.07,SSE,165,2.0,7.0,255,0.00,,,0.01,Wunderground v.1.15,2013-09-07 17:37:00,
2013-09-07 13:42:00,-999.9,-99.9,30.07,SSW,196,1.0,7.0,255,0.00,,,0.01,Wunderground v.1.15,2013-09-07 17:42:00,
2013-09-07 13:48:00,-999.9,-99.9,30.06,SE,126,1.0,10.0,255,0.00,,,0.01,Wunderground v.1.15,2013-09-07 17:48:00,
2013-09-07 13:54:00,-999.9,-99.9,30.06,ESE,104,3.0,9.0,255,0.00,,,0.01,Wunderground v.1.15,2013-09-07 17:54:00,
2013-09-07 14:01:00,-999.9,-99.9,30.06,South,180,2.0,2.0,255,0.00,,,0.01,Wunderground v.1.15,2013-09-07 18:01:00,
2013-09-07 14:06:00,-999.9,-99.9,30.06,South,170,2.0,8.0,255,0.00,,,0.01,Wunderground v.1.15,2013-09-07 18:06:00,
2013-09-07 14:12:00,-999.9,-99.9,30.06,SSE,149,2.0,8.0,255,0.00,,,0.01,Wunderground v.1.15,2013-09-07 18:12:00,
2013-09-07 14:18:00,-999.9,-99.9,30.05,SE,126,3.0,8.0,255,0.00,,,0.01,Wunderground v.1.15,2013-09-07 18:18:00,
2013-09-07 14:24:00,-999.9,-99.9,30.05,SSE,149,2.0,8.0,255,0.00,,,0.01,Wunderground v.1.15,2013-09-07 18:24:00,
2013-09-07 14:30:00,-999.9,-99.9,30.05,NW,305,1.0,8.0,255,0.00,,,0.01,Wunderground v.1.15,2013-09-07 18:30:00,
2013-09-07 14:35:00,-999.9,-99.9,30.05,SE,134,2.0,8.0,255,0.00,,,0.01,Wunderground v.1.15,2013-09-07 18:35:00,
2013-09-07 14:41:00,-999.9,-99.9,30.04,SSE,155,3.0,8.0,255,0.00,,,0.01,Wunderground v.1.15,2013-09-07 18:41:00,
2013-09-07 14:47:00,-999.9,-99.9,30.04,South,181,3.0,8.0,255,0.00,,,0.01,Wunderground v.1.15,2013-09-07 18:47:00,
2013-09-07 14:52:00,-999.9,-99.9,30.04,WNW,292,2.0,8.0,255,0.00,,,0.01,Wunderground v.1.15,2013-09-07 18:52:00,
2013-09-07 14:58:00,-999.9,-99.9,30.04,SSE,165,3.0,8.0,255,0.00,,,0.01,Wunderground v.1.15,2013-09-07 18:58:00,
2013-09-07 15:03:00,-999.9,-99.9,30.04,SE,126,3.0,9.0,255,0.00,,,0.01,Wunderground v.1.15,2013-09-07 19:03:00,
2013-09-07 15:09:00,-999.9,-99.9,30.03,South,177,4.0,9.0,255,0.00,,,0.01,Wunderground v.1.15,2013-09-07 19:09:00,
2013-09-07 15:15:00,-999.9,-99.9,30.03,SSE,165,3.0,9.0,255,0.00,,,0.01,Wunderground v.1.15,2013-09-07 19:15:00,
2013-09-07 15:21:00,-999.9,-99.9,30.03,West,281,2.0,9.0,255,0.00,,,0.01,Wunderground v.1.15,2013-09-07 19:21:00,
2013-09-07 15:26:00,75.6,-99.9,30.03,ESE,120,2.0,9.0,255,0.00,,,0.01,Wunderground v.1.15,2013-09-07 19:26:00,
2013-09-07 15:32:00,75.7,58.9,30.03,South,175,1.0,9.0,56,0.00,,,0.01,Wunderground v.1.15,2013-09-07 19:32:00,
2013-09-07 15:38:00,75.4,58.1,30.03,West,277,1.0,9.0,55,0.00,,,0.01,Wunderground v.1.15,2013-09-07 19:38:00,
2013-09-07 15:44:00,75.3,59.0,30.03,SSE,153,1.0,9.0,57,0.00,,,0.01,Wunderground v.1.15,2013-09-07 19:44:00,
2013-09-07 15:49:00,75.6,58.8,30.03,NNE,24,1.0,9.0,56,0.00,,,0.01,Wunderground v.1.15,2013-09-07 19:49:00,
2013-09-07 15:55:00,-999.9,-99.9,30.03,NW,311,1.0,9.0,57,0.00,,,0.01,Wunderground v.1.15,2013-09-07 19:55:00,
2013-09-07 16:01:00,-999.9,-99.9,30.03,NW,311,1.0,1.0,57,0.00,,,0.01,Wunderground v.1.15,2013-09-07 20:01:00,
2013-09-07 16:06:00,75.5,61.6,30.02,WNW,295,1.0,10.0,62,0.00,,,0.01,Wunderground v.1.15,2013-09-07 20:06:00,
2013-09-07 16:12:00,75.5,61.6,30.02,WNW,288,1.0,10.0,62,0.00,,,0.01,Wunderground v.1.15,2013-09-07 20:12:00,
2013-09-07 16:18:00,75.5,59.2,30.02,NW,315,1.0,10.0,57,0.00,,,0.01,Wunderground v.1.15,2013-09-07 20:18:00,
2013-09-07 16:24:00,75.5,59.2,30.02,WNW,286,1.0,10.0,57,0.00,,,0.01,Wunderground v.1.15,2013-09-07 20:24:00,
2013-09-07 16:30:00,75.5,58.7,30.02,WNW,295,1.0,10.0,56,0.00,,,0.01,Wunderground v.1.15,2013-09-07 20:30:00,
2013-09-07 16:36:00,75.4,58.1,30.01,NW,321,1.0,10.0,55,0.00,,,0.01,Wunderground v.1.15,2013-09-07 20:36:00,
2013-09-07 16:42:00,74.9,61.9,30.01,NW,321,0.0,10.0,64,0.00,,,0.01,Wunderground v.1.15,2013-09-07 20:42:00,
2013-09-07 16:48:00,74.0,63.6,30.01,NW,321,0.0,10.0,70,0.00,,,0.01,Wunderground v.1.15,2013-09-07 20:48:00,
2013-09-07 16:54:00,73.7,59.4,30.01,NNE,23,0.0,10.0,61,0.00,,,0.01,Wunderground v.1.15,2013-09-07 20:54:00,
2013-09-07 16:59:00,73.6,62.4,30.01,ESE,108,1.0,10.0,68,0.00,,,0.01,Wunderground v.1.15,2013-09-07 20:59:00,
2013-09-07 17:04:00,72.5,64.1,30.01,ESE,107,0.0,5.0,75,0.00,,,0.01,Wunderground v.1.15,2013-09-07 21:04:00,
2013-09-07 17:10:00,72.7,61.1,30.01,NW,306,0.0,5.0,67,0.00,,,0.01,Wunderground v.1.15,2013-09-07 21:10:00,
2013-09-07 17:16:00,73.6,61.5,30.01,NW,307,0.0,5.0,66,0.00,,,0.01,Wunderground v.1.15,2013-09-07 21:16:00,
2013-09-07 17:21:00,72.8,64.8,30.01,NW,307,0.0,5.0,76,0.00,,,0.01,Wunderground v.1.15,2013-09-07 21:21:00,
2013-09-07 17:27:00,72.6,65.0,30.01,NW,307,0.0,5.0,77,0.00,,,0.01,Wunderground v.1.15,2013-09-07 21:27:00,
2013-09-07 17:33:00,72.7,61.9,30.01,SE,139,0.0,5.0,69,0.00,,,0.01,Wunderground v.1.15,2013-09-07 21:33:00,
2013-09-07 17:39:00,73.1,63.9,30.01,SSE,159,1.0,5.0,73,0.00,,,0.01,Wunderground v.1.15,2013-09-07 21:39:00,
2013-09-07 17:44:00,72.0,64.0,30.00,SSE,168,1.0,5.0,76,0.00,,,0.01,Wunderground v.1.15,2013-09-07 21:44:00,
2013-09-07 17:49:00,72.4,64.0,30.00,SSE,168,0.0,5.0,75,0.00,,,0.01,Wunderground v.1.15,2013-09-07 21:49:00,
2013-09-07 17:55:00,71.0,64.2,30.00,SSE,168,0.0,5.0,79,0.00,,,0.01,Wunderground v.1.15,2013-09-07 21:55:00,
2013-09-07 18:00:00,70.0,62.8,30.00,SSE,168,0.0,5.0,78,0.00,,,0.01,Wunderground v.1.15,2013-09-07 22:00:00,
2013-09-07 18:06:00,69.5,63.8,30.00,SSE,168,0.0,5.0,82,0.00,,,0.01,Wunderground v.1.15,2013-09-07 22:06:00,
2013-09-07 18:11:00,68.6,63.6,30.00,SSE,168,0.0,5.0,84,0.00,,,0.01,Wunderground v.1.15,2013-09-07 22:11:00,
2013-09-07 18:17:00,68.0,63.3,30.00,SSE,168,0.0,5.0,85,0.00,,,0.01,Wunderground v.1.15,2013-09-07 22:17:00,
2013-09-07 18:23:00,67.5,63.2,30.00,SSE,168,0.0,5.0,86,0.00,,,0.01,Wunderground v.1.15,2013-09-07 22:23:00,
2013-09-07 18:29:00,67.0,62.7,29.99,SSE,168,0.0,5.0,86,0.00,,,0.01,Wunderground v.1.15,2013-09-07 22:29:00,
2013-09-07 18:35:00,66.7,63.0,29.99,SSE,168,0.0,5.0,88,0.00,,,0.01,Wunderground v.1.15,2013-09-07 22:35:00,
2013-09-07 18:40:00,66.3,63.0,29.99,SSE,168,0.0,5.0,89,0.00,,,0.01,Wunderground v.1.15,2013-09-07 22:40:00,
2013-09-07 18:46:00,66.2,63.2,29.99,SSE,168,0.0,5.0,90,0.00,,,0.01,Wunderground v.1.15,2013-09-07 22:46:00,
2013-09-07 18:52:00,65.8,63.1,29.99,SSE,168,0.0,5.0,91,0.00,,,0.01,Wunderground v.1.15,2013-09-07 22:52:00,
2013-09-07 18:58:00,65.5,62.8,29.99,SSE,168,0.0,5.0,91,0.00,,,0.01,Wunderground v.1.15,2013-09-07 22:58:00,
2013-09-07 19:03:00,65.3,62.9,29.99,SSE,168,0.0,0.0,92,0.00,,,0.01,Wunderground v.1.15,2013-09-07 23:03:00,
2013-09-07 19:08:00,65.0,62.6,29.99,SSE,168,0.0,0.0,92,0.00,,,0.01,Wunderground v.1.15,2013-09-07 23:08:00,
2013-09-07 19:14:00,64.7,62.6,29.99,SSE,168,0.0,0.0,93,0.00,,,0.01,Wunderground v.1.15,2013-09-07 23:14:00,
2013-09-07 19:20:00,64.4,62.6,29.99,SSE,168,0.0,0.0,94,0.00,,,0.01,Wunderground v.1.15,2013-09-07 23:20:00,
2013-09-07 19:25:00,64.1,62.3,29.99,SSE,168,0.0,0.0,94,0.00,,,0.01,Wunderground v.1.15,2013-09-07 23:25:00,
2013-09-07 19:31:00,63.6,61.8,29.99,SSE,168,0.0,0.0,94,0.00,,,0.01,Wunderground v.1.15,2013-09-07 23:31:00,
2013-09-07 19:37:00,63.3,61.8,29.99,SSE,168,0.0,0.0,95,0.00,,,0.01,Wunderground v.1.15,2013-09-07 23:37:00,
2013-09-07 19:42:00,63.1,61.6,29.99,SSE,168,0.0,0.0,95,0.00,,,0.01,Wunderground v.1.15,2013-09-07 23:42:00,
2013-09-07 19:48:00,62.7,61.2,29.98,SSE,168,0.0,0.0,95,0.00,,,0.01,Wunderground v.1.15,2013-09-07 23:48:00,
2013-09-07 19:54:00,62.1,60.7,29.99,SSE,168,0.0,0.0,95,0.00,,,0.01,Wunderground v.1.15,2013-09-07 23:54:00,
2013-09-07 20:00:00,61.7,60.5,29.99,SSE,168,0.0,0.0,96,0.00,,,0.01,Wunderground v.1.15,2013-09-08 00:00:00,
2013-09-07 20:06:00,61.5,60.3,29.99,SSE,168,0.0,0.0,96,0.00,,,0.01,Wunderground v.1.15,2013-09-08 00:06:00,
2013-09-07 20:11:00,61.3,60.2,29.99,SSE,168,0.0,0.0,96,0.00,,,0.01,Wunderground v.1.15,2013-09-08 00:11:00,
2013-09-07 20:17:00,61.0,60.1,29.99,SSE,168,0.0,0.0,97,0.00,,,0.01,Wunderground v.1.15,2013-09-08 00:17:00,
2013-09-07 20:23:00,60.7,59.8,29.99,SSE,168,0.0,0.0,97,0.00,,,0.01,Wunderground v.1.15,2013-09-08 00:23:00,
2013-09-07 20:29:00,60.5,59.6,29.99,SSE,168,0.0,0.0,97,0.00,,,0.01,Wunderground v.1.15,2013-09-08 00:29:00,
2013-09-07 20:35:00,60.3,59.4,29.99,SSE,168,0.0,0.0,97,0.00,,,0.01,Wunderground v.1.15,2013-09-08 00:35:00,
2013-09-07 20:40:00,60.0,59.4,30.00,SSE,168,0.0,0.0,98,0.00,,,0.01,Wunderground v.1.15,2013-09-08 00:40:00,
2013-09-07 20:46:00,59.8,59.2,30.00,SSE,168,0.0,0.0,98,0.00,,,0.01,Wunderground v.1.15,2013-09-08 00:46:00,
2013-09-07 20:51:00,59.8,59.2,30.00,SSE,168,0.0,0.0,98,0.00,,,0.01,Wunderground v.1.15,2013-09-08 00:51:00,
2013-09-07 20:57:00,59.8,59.2,30.00,SSE,168,0.0,0.0,98,0.00,,,0.01,Wunderground v.1.15,2013-09-08 00:57:00,
2013-09-07 21:02:00,59.8,59.2,30.00,SSE,168,0.0,0.0,98,0.00,,,0.01,Wunderground v.1.15,2013-09-08 01:02:00,
2013-09-07 21:08:00,59.8,59.5,30.00,SSE,168,0.0,0.0,99,0.00,,,0.01,Wunderground v.1.15,2013-09-08 01:08:00,
2013-09-07 21:14:00,59.9,59.6,30.00,SSE,168,0.0,0.0,99,0.00,,,0.01,Wunderground v.1.15,2013-09-08 01:14:00,
2013-09-07 21:20:00,60.1,59.8,30.00,SSE,168,0.0,0.0,99,0.00,,,0.01,Wunderground v.1.15,2013-09-08 01:20:00,
2013-09-07 21:26:00,60.2,59.9,30.01,SSE,168,0.0,0.0,99,0.00,,,0.01,Wunderground v.1.15,2013-09-08 01:26:00,
2013-09-07 21:31:00,60.3,60.0,30.00,SSE,168,0.0,0.0,99,0.00,,,0.01,Wunderground v.1.15,2013-09-08 01:31:00,
2013-09-07 21:37:00,60.3,60.0,30.00,SSE,168,0.0,0.0,99,0.00,,,0.01,Wunderground v.1.15,2013-09-08 01:37:00,
2013-09-07 21:42:00,60.2,59.9,30.00,SSE,168,0.0,0.0,99,0.00,,,0.01,Wunderground v.1.15,2013-09-08 01:42:00,
2013-09-07 21:48:00,60.0,59.7,30.00,SSE,168,0.0,0.0,99,0.00,,,0.01,Wunderground v.1.15,2013-09-08 01:48:00,
2013-09-07 21:54:00,59.8,59.5,30.00,SSE,168,0.0,0.0,99,0.00,,,0.01,Wunderground v.1.15,2013-09-08 01:54:00,
2013-09-07 21:59:00,59.8,59.5,29.99,SSE,168,0.0,0.0,99,0.00,,,0.01,Wunderground v.1.15,2013-09-08 01:59:00,
2013-09-07 22:04:00,59.7,59.4,29.99,SSE,168,0.0,0.0,99,0.00,,,0.01,Wunderground v.1.15,2013-09-08 02:04:00,
2013-09-07 22:10:00,59.6,59.3,29.99,SSE,168,0.0,0.0,99,0.00,,,0.01,Wunderground v.1.15,2013-09-08 02:10:00,
2013-09-07 22:15:00,59.6,59.3,29.99,SSE,168,0.0,0.0,99,0.00,,,0.01,Wunderground v.1.15,2013-09-08 02:15:00,
2013-09-07 22:21:00,59.6,59.3,29.99,SSE,168,0.0,0.0,99,0.00,,,0.01,Wunderground v.1.15,2013-09-08 02:21:00,
2013-09-07 22:27:00,59.5,59.2,29.99,SSE,168,0.0,0.0,99,0.00,,,0.01,Wunderground v.1.15,2013-09-08 02:27:00,
2013-09-07 22:32:00,59.5,59.2,29.99,SSE,168,0.0,0.0,99,0.00,,,0.01,Wunderground v.1.15,2013-09-08 02:32:00,
2013-09-07 22:37:00,59.6,59.3,29.99,SSE,168,0.0,0.0,99,0.00,,,0.01,Wunderground v.1.15,2013-09-08 02:37:00,
2013-09-07 22:43:00,59.6,59.3,29.99,SSE,168,0.0,0.0,99,0.00,,,0.01,Wunderground v.1.15,2013-09-08 02:43:00,
2013-09-07 22:49:00,59.6,59.3,29.99,SSE,168,0.0,0.0,99,0.00,,,0.01,Wunderground v.1.15,2013-09-08 02:49:00,
2013-09-07 22:55:00,59.7,59.4,29.99,SSE,168,0.0,0.0,99,0.00,,,0.01,Wunderground v.1.15,2013-09-08 02:55:00,
2013-09-07 23:00:00,59.6,59.3,29.99,SSE,168,0.0,0.0,99,0.00,,,0.01,Wunderground v.1.15,2013-09-08 03:00:00,
2013-09-07 23:05:00,59.5,59.2,29.98,SSE,168,0.0,0.0,99,0.00,,,0.01,Wunderground v.1.15,2013-09-08 03:05:00,
2013-09-07 23:11:00,59.3,59.0,29.99,SSE,168,0.0,0.0,99,0.00,,,0.01,Wunderground v.1.15,2013-09-08 03:11:00,
2013-09-07 23:17:00,59.1,58.8,29.99,SSE,168,0.0,0.0,99,0.00,,,0.01,Wunderground v.1.15,2013-09-08 03:17:00,
2013-09-07 23:23:00,59.0,58.7,29.98,SSE,168,0.0,0.0,99,0.00,,,0.01,Wunderground v.1.15,2013-09-08 03:23:00,
2013-09-07 23:29:00,59.0,58.7,29.98,SSE,168,0.0,0.0,99,0.00,,,0.01,Wunderground v.1.15,2013-09-08 03:29:00,
2013-09-07 23:35:00,59.1,58.8,29.98,SSE,168,0.0,0.0,99,0.00,,,0.01,Wunderground v.1.15,2013-09-08 03:35:00,
2013-09-07 23:40:00,59.2,58.9,29.98,SSE,168,0.0,0.0,99,0.00,,,0.01,Wunderground v.1.15,2013-09-08 03:40:00,
2013-09-07 23:45:00,59.4,59.1,29.98,SSE,168,0.0,0.0,99,0.00,,,0.01,Wunderground v.1.15,2013-09-08 03:45:00,
2013-09-07 23:51:00,59.4,59.1,29.98,SSE,168,0.0,0.0,99,0.00,,,0.01,Wunderground v.1.15,2013-09-08 03:51:00,
2013-09-07 23:56:00,59.5,59.2,29.98,SSE,168,0.0,0.0,99,0.00,,,0.01,Wunderground v.1.15,2013-09-08 03:56:00,